This is the latest recevied weather packets stored in our database for station/object IZ5MMH-14. If no packets are shown the sender has not sent any weather packets the latest 10 day(s).
| Time | Temp. | Humidity | Pressure | Rain* | Wind** | Luminosity | Snow |
|---|---|---|---|---|---|---|---|
| 1777926600 | 21.11° C | 99% | 1017.2 hPa | - | - | - | - |
| 1777926000 | 21.11° C | 10% | - | - | - | - | - |
| 1777925400 | 21.67° C | 96% | 1017.2 hPa | - | - | - | - |
| 1777924800 | 21.67° C | 97% | 1017.4 hPa | - | - | - | - |
| 1777924200 | 21.11° C | 99% | 1017.2 hPa | - | - | - | - |
| 1777923600 | 21.67° C | 96% | 1017.3 hPa | - | - | - | - |
| 1777923000 | 21.67° C | 97% | 1017.2 hPa | - | - | - | - |
| 1777922400 | 21.67° C | 95% | 1017.1 hPa | - | - | - | - |
| 1777921800 | 21.11° C | 96% | 1017.2 hPa | - | - | - | - |
| 1777921200 | 21.67° C | 92% | 1017.1 hPa | - | - | - | - |
| 1777920600 | 21.67° C | 92% | 1016.9 hPa | - | - | - | - |
| 1777920000 | 21.67° C | 90% | 1017.1 hPa | - | - | - | - |
| 1777919400 | 21.67° C | 89% | 1016.9 hPa | - | - | - | - |
| 1777918800 | 21.67° C | 89% | 1017.1 hPa | - | - | - | - |
| 1777918200 | 22.22° C | 87% | 1017 hPa | - | - | - | - |
| 1777917600 | 22.22° C | 86% | 1017 hPa | - | - | - | - |
| 1777917000 | 22.22° C | 86% | 1017.1 hPa | - | - | - | - |
| 1777916400 | 22.22° C | 84% | 1017.1 hPa | - | - | - | - |
| 1777915800 | 22.22° C | 85% | 1017.2 hPa | - | - | - | - |
| 1777915200 | 22.22° C | 82% | 1017.3 hPa | - | - | - | - |
| 1777914600 | 22.22° C | 82% | 1017.3 hPa | - | - | - | - |
| 1777914000 | 22.22° C | 81% | 1017.3 hPa | - | - | - | - |
| 1777913400 | 22.78° C | 80% | 1017.2 hPa | - | - | - | - |
| 1777912800 | 22.22° C | 80% | 1017.3 hPa | - | - | - | - |
| 1777912199 | 22.22° C | 79% | 1017.3 hPa | - | - | - | - |
* Rain since midnight (hover to see other rain measurements)
** Current wind speed in m/s (hover to see current wind gust speed)